Weather in Tobolovo

Russia / Tyumen Oblast     56°12′21″N   69°08′46″E
temp.,
°C
wind,
m/s
gust,
m/s
humid.,
%
clouds,
%
prec.,
mm/h
press.,
hPa
HPBL,
m
14 april, wed
wed1423:00+4wsw411945 0.0 1037211
02:00+4sw5129536 0.0 1034248
05:00+4sw6149391 0.0 1033319
08:00+6wsw71689100 0.0 1032431
11:00+11w812777 0.0 1029581
14:00+14w810697 0.0 1028845
17:00+16w697031 0.0 10271033
20:00+12wsw47875 0.0 1027108
15 april, thu
thu1523:00+10w38905 0.0 1026138
02:00+9w48895 0.0 1025125
05:00+8w48915 0.0 1025118
08:00+10w48805 0.0 1025234
11:00+15w57645 0.0 1023648
14:00+18wsw686156 0.0 10221107
17:00+17wsw695419 0.0 10201053
20:00+13sw412665 0.0 1019235
16 april, fri
fri1623:00+10wsw513705 0.0 1017225
02:00+9wsw5137152 0.0 1015232
05:00+7wsw5117822 0.0 1014190
08:00+10wnw597799 0.0 1014408
11:00+6n71088100 0.0 1018697
14:00+5nne5983100 0.2 1020910
17:00+7ne695496 0.3 10211636
20:00+4ne596190 0.0 1023320
17 april, sat
sat1723:00+1ne510675 0.0 1024382
02:00−1ene47690 0.0 1024330
05:00−2e35700 0.0 1024343
08:000sse22560 0.0 1022494
11:00+3wsw344896 0.0 10201308
14:00+6w574099 0.0 10171988
17:00+6wnw6947100 0.0 10141820
20:00+1nnw71377100 1.6 1016980
18 april, sun
sun1823:00−1n611692 1.6 1018844
02:00−3n475998 0.0 1018725
05:00−3nnw4554100 0.0 1019744
08:00−2nnw3543100 0.0 1019795
11:00−1n4441100 0.0 10191120
14:00−2nnw4657100 0.4 10211065
17:00−1n7830100 0.4 10221811
20:00−3n610414 0.0 1025882